Overijse, Belgium
Current Conditions -  °F | °C
As of 1:50 PM on Monday 22 Dec 2014 (Local Time) from EBBR Reporting Station
Broken Clouds Broken Clouds  
Wind Chill: 50°   Ceiling: 1200
Heat Index: 50°   Visibility: 6mi
Dew Point: 46°   Wind: 22mph
Humidity: 87%   Direction: 240°WSW
Pressure: 30.09"   Gusts: NA
Location:  50.77°N, 4.53°E
Report Text: EBBR 221250Z 24019KT 9999 SCT010 BKN012 10/08 Q1019 TEMPO BKN009
Loading
Personal Weather Stations






























Interactive Weather Map New forecast layout! Learn more

10-Day Weather Forecast

Advertisements
Track Severe Weather on mobile